{"data":{"norad_id":48215,"intl_designator":"2021-031F","name":"ONEWEB-0209","alt_names":[],"object_type":"PAYLOAD","status":"ACTIVE","operator":null,"country":"UK","launch_date":"2021-04-25","launch_site_code":"VOSTO","launch_vehicle":null,"mission":null,"orbit_class":"UNKNOWN","rcs_meters":null,"size_class":null,"mass_kg":null,"dimensions":null,"purposes":["comms"],"wikipedia_slug":null,"has_3d_model":false,"image_url":null,"decayed_at":null,"tle_current":{"epoch":"2026-05-25T02:27:46.532160Z","epoch_age_seconds":76659,"freshness":"FRESH","line1":"1 48215U 21031F   26145.10262190  .00000209  00000+0  52928-3 0  9995","line2":"2 48215  87.8933 294.3169 0001804 105.1175 255.0154 13.14503618245349","mean_motion":13.14503618,"eccentricity":0.0001804,"inclination_deg":87.8933,"raan_deg":294.3169,"arg_perigee_deg":105.1175,"mean_anomaly_deg":255.0154,"bstar":0.00052928,"rev_number":24534,"period_min":109.54705489445,"perigee_km":1204.4190684577,"apogee_km":1207.1553483121,"semimajor_km":7583.9242083849,"source":"CELESTRAK","updated_at":"2026-05-25T13:38:22.396658Z"}}}